Probability
0 0 0 3 3 3 3 3 6 6 6 3 3 3 3 0 0 0 0 0 0 0 0 0 0 0 0 0 0 0 0 0 0 0 0 0 0 0 0 0 0 0 0
0 0 3 3 3 3 3 3 3 3 3 3 3 3 3 3 0 0 0 0 0 0 0 0 0 0 0 0 0 0 0 0 0 0 0 0 0 0 0 0 0 0 0
0 0 3 3 3 3 3 3 3 3 3 3 3 3 3 3 0 0 0 0 0 0 0 0 0 0 0 0 0 0 0 0 0 0 0 0 0 0 0 0 0 0 0
0 0 3 3 3 3 3 3 3 3 3 3 3 3 3 3 0 0 0 0 0 0 0 0 0 0 0 0 0 0 0 0 0 0 0 0 0 0 0 0 0 0 0
0 0 0 0 0 0 3 3 3 3 3 3 3 3 3 3 3 0 0 0 0 0 0 0 0 0 0 0 0 0 0 0 0 0 0 0 0 0 0 0 0 0 0
0 0 0 0 0 0 0 3 3 3 3 3 3 3 3 3 3 3 3 3 0 0 0 0 0 0 0 0 0 0 0 0 0 0 0 0 0 0 0 0 0 0 0
0 0 0 0 0 0 0 0 3 3 3 3 3 3 3 3 3 3 3 3 0 0 0 0 0 0 0 0 0 0 0 0 0 0 0 0 0 0 0 0 0 0 0
0 0 0 0 0 0 0 0 0 3 3 3 0 0 3 3 3 3 3 3 0 0 0 0 0 0 0 0 0 0 0 0 0 0 0 0 0 0 0 0 0 0 0
0 0 0 0 0 0 0 0 0 0 0 0 3 0 0 0 3 3 3 3 3 0 0 0 0 0 0 0 0 0 0 0 0 0 0 0 0 0 0 0 0 0 0
0 0 0 0 0 0 0 0 0 0 0 0 0 0 0 0 0 0 0 3 3 3 0 0 0 0 0 0 0 0 0 0 0 0 0 0 0 0 0 0 0 0 0
0 0 0 0 0 0 0 0 0 0 0 0 0 0 0 0 0 0 0 3 3 3 0 0 0 0 0 0 0 0 0 0 0 0 0 0 0 0 0 0 0 0 0
0 0 0 0 0 0 0 0 0 0 0 0 0 0 0 0 0 0 0 0 0 0 0 0 0 0 0 0 0 0 0 0 0 0 0 0 0 0 0 0 0 0 0
0 0 0 0 0 0 0 0 0 0 0 0 0 0 0 0 0 0 0 0 0 0 0 0 0 0 0 0 0 0 0 0 0 0 0 0 0 0 0 0 0 0 0
0 0 0 0 0 0 0 0 0 0 0 0 0 0 0 0 0 3 3 0 0 0 0 0 0 0 0 0 0 0 0 0 0 0 0 0 0 0 0 0 0 0 0
0 0 0 0 0 0 0 0 0 0 0 0 0 0 0 0 0 0 3 0 0 0 0 0 0 0 0 0 0 0 0 0 0 0 0 0 0 0 0 0 0 0 0
0 0 0 0 0 0 0 0 0 0 0 0 0 0 0 0 0 0 0 0 0 0 0 0 0 0 0 0 0 0 0 0 0 0 0 0 0 0 0 0 0 0 0
0 0 0 0 0 0 0 0 0 0 0 0 0 0 0 0 0 0 0 0 0 0 0 0 0 0 0 0 0 0 0 0 0 0 0 0 0 0 0 0 0 0 0
0 0 0 0 0 0 0 0 0 0 0 0 0 0 0 0 0 0 0 0 0 0 0 0 0 0 0 0 0 0 0 0 0 0 0 0 0 0 0 0 0 0 0
0 0 0 0 0 0 0 0 0 0 0 0 0 0 0 0 0 0 0 0 0 0 0 0 0 0 0 0 0 0 0 0 0 0 0 0 0 0 0 0 0 0 0
0 0 0 0 0 0 0 0 0 0 0 0 0 0 0 0 0 0 0 0 0 0 0 0 0 0 0 0 0 0 0 0 0 0 0 0 0 0 0 0 0 0 0
0 0 0 0 0 0 0 0 0 0 0 0 0 0 0 0 0 0 0 0 0 0 0 0 0 0 0 0 0 0 0 0 0 0 0 0 0 0 0 0 0 0 0
0 0 0 0 0 0 0 0 0 0 0 0 0 0 0 0 0 0 0 0 0 0 0 0 0 0 0 0 0 0 0 0 0 0 0 0 0 0 0 0 0 0 0
0 0 0 0 0 0 0 0 0 0 0 0 0 0 0 0 0 0 0 0 0 0 0 0 0 0 0 0 0 0 0 0 0 0 0 0 0 0 0 0 0 0 0
0 0 0 0 0 0 0 0 0 0 0 0 0 0 0 0 0 0 0 0 0 0 0 0 0 0 0 0 0 0 0 0 0 0 0 0 0 0 0 0 0 0 0
0 0 0 0 0 0 0 0 0 0 0 0 0 0 0 0 0 0 0 0 0 0 0 0 0 0 0 0 0 0 0 0 0 0 0 0 0 0 0 0 0 0 0
0 0 0 0 0 0 0 0 0 0 0 0 0 0 0 0 0 0 0 0 0 0 0 0 0 0 0 0 0 0 0 0 0 0 0 0 0 0 0 0 0 0 0
Height
5675 5675 5676 5677 5678 5680 5682 5684 5687 5689 5691 5694 5697 5700 5702 5704 5706 5708 5710 5713 5715 5717 5719 5720 5722 5724 5726 5729 5731 5733 5735 5737 5739 5741 5742 5744 5744 5746 5747 5748 5749 5750 5750
5666 5666 5666 5667 5668 5670 5672 5674 5676 5679 5681 5684 5687 5690 5692 5694 5696 5698 5700 5702 5704 5706 5708 5710 5712 5714 5717 5719 5721 5723 5725 5727 5729 5731 5732 5734 5736 5736 5737 5738 5740 5740 5741
5658 5658 5658 5658 5660 5661 5663 5664 5666 5669 5671 5674 5676 5679 5681 5684 5686 5688 5690 5691 5693 5695 5697 5700 5702 5704 5706 5708 5710 5712 5714 5716 5718 5720 5722 5723 5726 5727 5728 5729 5730 5731 5731
5650 5650 5650 5651 5651 5652 5653 5655 5657 5659 5661 5664 5667 5670 5672 5674 5676 5678 5679 5680 5682 5684 5686 5688 5691 5693 5695 5697 5698 5701 5703 5705 5708 5709 5711 5713 5715 5717 5718 5720 5720 5721 5722
5642 5642 5642 5642 5642 5643 5643 5645 5647 5649 5651 5654 5657 5659 5661 5663 5664 5666 5668 5669 5671 5673 5675 5677 5680 5682 5683 5685 5687 5689 5692 5695 5697 5699 5701 5703 5705 5706 5708 5710 5711 5712 5713
5634 5634 5633 5633 5633 5634 5634 5635 5637 5639 5641 5644 5646 5648 5650 5651 5654 5655 5656 5658 5660 5662 5664 5665 5668 5670 5672 5674 5676 5678 5681 5684 5686 5688 5690 5692 5695 5697 5698 5700 5701 5702 5703
5627 5626 5625 5625 5625 5625 5626 5626 5628 5630 5632 5634 5636 5637 5638 5640 5642 5644 5646 5647 5649 5651 5653 5654 5657 5659 5661 5663 5665 5667 5670 5672 5675 5677 5679 5682 5684 5686 5688 5689 5690 5692 5693
5620 5618 5617 5617 5616 5617 5617 5618 5619 5620 5622 5624 5625 5626 5628 5629 5631 5632 5634 5636 5638 5640 5641 5644 5646 5648 5651 5653 5655 5657 5659 5661 5664 5666 5668 5671 5672 5675 5677 5679 5680 5681 5682
5611 5610 5609 5608 5608 5608 5608 5609 5610 5611 5613 5614 5615 5616 5617 5619 5621 5622 5624 5625 5627 5629 5631 5633 5636 5638 5640 5642 5644 5646 5648 5650 5653 5655 5657 5659 5661 5664 5666 5668 5669 5670 5671
5604 5602 5601 5599 5599 5599 5599 5599 5600 5601 5602 5604 5605 5607 5608 5609 5611 5612 5614 5616 5617 5618 5620 5623 5625 5627 5630 5632 5633 5635 5637 5639 5641 5644 5646 5648 5650 5652 5655 5656 5658 5659 5661
5596 5594 5593 5592 5591 5590 5590 5590 5591 5592 5593 5594 5596 5597 5598 5599 5601 5603 5604 5606 5607 5609 5610 5612 5614 5616 5619 5621 5623 5624 5626 5628 5630 5632 5635 5637 5639 5641 5643 5645 5647 5649 5650
5589 5587 5586 5584 5582 5582 5582 5581 5581 5582 5584 5585 5586 5587 5589 5590 5591 5593 5594 5596 5597 5598 5600 5601 5603 5605 5607 5609 5612 5614 5615 5617 5619 5621 5624 5626 5628 5630 5632 5635 5637 5638 5640
5583 5580 5579 5577 5575 5573 5573 5572 5572 5573 5574 5575 5576 5577 5579 5580 5582 5583 5584 5586 5587 5589 5590 5591 5592 5594 5596 5598 5600 5603 5604 5607 5608 5610 5612 5614 5617 5620 5622 5624 5626 5628 5630
5576 5574 5572 5569 5567 5565 5564 5563 5563 5563 5565 5566 5568 5569 5570 5571 5572 5574 5575 5576 5577 5579 5580 5581 5582 5583 5585 5587 5589 5591 5593 5596 5598 5600 5602 5603 5606 5609 5611 5613 5615 5617 5619
5570 5567 5565 5562 5559 5557 5555 5554 5554 5555 5556 5557 5559 5560 5561 5562 5563 5564 5566 5567 5568 5569 5570 5571 5572 5573 5575 5577 5579 5581 5583 5585 5587 5589 5591 5593 5595 5597 5600 5603 5605 5607 5609
5563 5561 5558 5555 5552 5550 5548 5547 5547 5547 5548 5549 5550 5551 5553 5554 5555 5556 5557 5557 5558 5559 5560 5561 5562 5564 5565 5567 5568 5570 5572 5575 5577 5579 5581 5583 5585 5587 5590 5593 5595 5597 5599
5558 5555 5552 5548 5546 5544 5542 5541 5541 5540 5540 5541 5542 5543 5544 5545 5546 5547 5547 5548 5549 5549 5550 5551 5553 5554 5555 5557 5559 5560 5562 5565 5567 5569 5571 5573 5575 5578 5580 5582 5585 5587 5589
5552 5548 5545 5542 5540 5538 5536 5535 5534 5534 5534 5534 5535 5536 5536 5537 5538 5539 5539 5539 5540 5541 5542 5543 5544 5545 5546 5548 5550 5551 5553 5556 5558 5560 5562 5564 5566 5568 5571 5573 5575 5578 5580
5545 5542 5539 5536 5534 5532 5531 5529 5528 5527 5527 5527 5528 5528 5529 5530 5530 5531 5531 5532 5532 5533 5534 5535 5536 5537 5538 5540 5541 5543 5545 5547 5549 5551 5553 5556 5558 5561 5563 5565 5567 5569 5571
5539 5536 5533 5530 5528 5526 5525 5523 5522 5522 5521 5521 5521 5521 5522 5522 5523 5523 5524 5524 5525 5526 5526 5527 5528 5529 5531 5532 5533 5535 5537 5539 5540 5543 5545 5548 5550 5552 5554 5556 5558 5560 5562
5533 5530 5527 5525 5523 5521 5520 5518 5517 5516 5516 5515 5515 5515 5515 5515 5516 5516 5517 5517 5518 5519 5520 5520 5521 5522 5523 5524 5525 5527 5528 5531 5532 5535 5537 5539 5542 5543 5545 5547 5549 5551 5552
5526 5524 5522 5520 5518 5516 5515 5513 5512 5511 5511 5510 5510 5510 5509 5509 5509 5510 5510 5511 5511 5512 5512 5513 5514 5514 5515 5516 5517 5519 5521 5523 5525 5527 5529 5531 5533 5535 5537 5538 5540 5542 5543
5520 5518 5516 5515 5513 5511 5510 5509 5508 5507 5506 5505 5505 5504 5504 5504 5504 5503 5504 5504 5504 5505 5505 5506 5507 5507 5508 5509 5510 5511 5513 5515 5517 5519 5521 5523 5525 5527 5529 5530 5532 5533 5534
5514 5512 5511 5509 5508 5506 5505 5504 5503 5502 5501 5500 5499 5499 5498 5498 5497 5497 5497 5497 5498 5498 5499 5499 5500 5501 5501 5502 5503 5504 5506 5508 5510 5512 5514 5515 5517 5519 5521 5523 5524 5525 5527
5508 5507 5505 5504 5503 5501 5500 5499 5498 5497 5496 5495 5494 5493 5493 5492 5492 5491 5491 5491 5491 5491 5492 5493 5494 5494 5495 5495 5496 5497 5499 5500 5502 5504 5506 5507 5509 5511 5513 5515 5517 5518 5520
5503 5501 5500 5499 5498 5497 5495 5494 5493 5492 5491 5490 5489 5488 5487 5487 5486 5485 5485 5485 5485 5485 5485 5486 5487 5488 5488 5489 5490 5491 5492 5493 5495 5496 5498 5500 5501 5503 5506 5508 5510 5511 5513
Wind_Speed
32 33 34 36 38 39 40 42 42 42 42 44 44 44 44 44 45 46 48 47 47 48 47 47 46 45 44 43 43 44 43 44 43 42 42 41 40 40 39 39 38 38 37
31 33 33 35 37 38 39 41 42 43 43 44 44 45 44 45 45 45 46 47 48 49 48 47 46 44 45 45 44 43 42 43 44 43 42 41 40 39 39 39 39 37 37
32 32 34 34 36 37 38 39 40 42 43 45 45 45 45 44 44 45 45 46 48 49 48 47 46 46 46 45 45 43 43 43 43 43 42 41 40 39 39 39 39 38 38
32 33 34 35 36 38 39 40 40 40 42 45 45 44 45 45 43 44 46 46 47 48 47 47 47 46 45 45 45 45 44 43 43 43 42 41 40 39 38 38 39 39 39
30 32 34 35 36 38 38 40 40 39 41 42 43 45 45 46 44 44 46 45 46 46 46 47 47 47 46 46 47 46 46 43 43 43 42 41 41 40 38 39 39 40 39
28 30 34 35 35 36 38 38 39 39 41 41 42 44 45 45 45 44 45 45 46 46 47 47 47 47 47 47 48 48 47 45 45 44 44 43 42 41 40 40 40 40 40
28 30 33 35 35 36 37 39 39 39 40 41 40 41 43 44 45 45 45 44 45 45 45 47 47 46 45 45 46 47 48 47 46 45 44 44 44 43 42 41 40 41 41
29 30 32 33 34 35 37 38 40 39 40 39 40 39 41 42 43 44 44 44 44 44 43 44 45 45 44 44 45 46 47 47 46 46 45 44 44 45 44 42 42 42 42
31 31 31 32 34 35 36 37 39 39 39 39 39 38 39 40 42 43 44 44 44 44 43 43 45 45 44 44 44 45 46 47 46 45 45 44 44 45 44 43 42 42 41
30 31 31 30 32 34 35 37 38 39 40 40 39 38 37 39 39 40 40 40 42 42 43 44 44 45 45 44 43 44 45 47 46 45 44 43 43 43 44 44 42 41 41
27 28 29 31 31 33 34 36 38 38 39 39 39 39 37 37 37 37 37 38 39 42 43 43 44 45 46 45 44 44 44 46 47 45 43 43 43 43 43 43 44 43 42
24 25 26 28 29 31 33 36 38 39 39 38 38 39 38 38 36 36 36 37 38 38 38 40 41 42 44 45 44 45 45 45 45 45 44 42 42 42 42 42 43 42 41
24 24 25 27 28 30 31 33 36 38 38 38 38 37 37 36 36 35 36 36 36 37 37 38 39 41 42 43 44 44 43 43 43 43 44 44 42 40 41 42 42 42 42
24 24 25 26 27 27 28 28 31 34 35 36 37 37 37 37 36 34 34 34 35 35 36 37 37 39 40 42 42 42 41 41 41 42 43 44 43 41 41 41 42 42 41
23 23 23 24 25 26 26 27 28 30 32 33 35 36 35 35 35 35 34 33 33 34 35 35 36 37 38 39 39 40 40 40 41 41 42 43 43 42 41 41 40 40 40
23 24 24 24 24 24 24 25 26 28 29 29 30 32 32 33 33 34 34 34 34 34 34 34 34 33 34 35 35 37 38 39 39 40 40 40 40 41 40 40 39 39 38
23 23 24 23 22 23 23 23 24 25 27 27 28 29 29 29 31 32 31 31 32 33 32 32 32 32 32 33 34 34 36 37 38 39 38 38 38 39 39 38 38 38 38
25 25 25 24 23 22 22 23 23 24 25 25 26 27 27 27 28 28 29 29 29 29 30 30 31 32 31 32 33 33 34 34 35 35 35 35 35 35 35 35 35 35 35
24 25 24 23 22 22 21 22 22 22 22 22 23 24 25 26 27 27 27 28 28 29 29 29 30 30 32 32 33 33 32 32 32 32 33 33 32 33 33 34 34 34 34
24 24 23 22 21 21 21 20 20 20 20 20 21 22 23 25 26 27 26 27 27 27 28 28 29 30 31 32 32 33 32 31 31 31 31 31 32 33 33 34 34 34 34
23 23 22 22 21 21 21 20 19 19 19 19 19 20 22 23 24 24 25 25 25 26 26 27 28 29 29 29 29 30 30 30 30 30 31 30 31 31 31 32 33 32 32
22 22 21 21 21 20 19 19 19 19 19 18 19 20 21 22 22 23 23 24 24 25 25 25 26 26 27 27 29 29 29 28 29 29 30 30 30 30 30 31 31 31 31
22 21 20 20 20 19 18 18 18 19 19 19 19 20 20 21 22 23 23 24 24 24 24 24 25 24 24 26 27 28 28 27 28 28 28 29 29 29 29 30 30 30 30
21 19 19 19 19 18 18 18 18 19 19 19 19 20 20 21 22 22 22 22 23 23 23 23 23 23 24 24 25 26 26 26 27 27 28 29 29 28 28 28 28 28 27
20 19 19 19 18 18 18 18 18 18 19 19 19 19 19 19 20 21 21 20 21 21 21 21 21 22 23 23 23 24 26 26 26 27 27 27 28 28 27 27 27 26 26
19 19 18 18 18 18 18 18 18 17 17 17 17 17 18 19 19 19 20 20 20 21 20 20 21 22 22 22 23 24 25 25 25 25 25 25 25 26 26 26 26 25 24
Wind_Direction
255 254 251 250 247 247 247 247 247 247 246 245 246 247 250 251 250 250 250 250 250 250 251 251 252 251 249 249 251 254 253 253 254 255 256 258 260 261 262 263 264 265 267
254 254 253 250 247 246 248 249 248 248 247 247 247 247 250 250 250 251 251 251 250 251 252 251 250 249 249 249 251 253 254 254 253 255 256 257 258 260 261 261 262 264 266
255 252 252 249 247 246 248 251 250 248 248 248 248 248 249 249 250 251 254 253 252 252 252 251 249 250 251 252 252 252 252 253 253 254 256 257 258 259 259 261 261 263 266
257 254 253 250 249 249 251 249 250 248 249 249 248 249 249 250 252 252 253 253 252 252 252 251 250 251 252 252 252 251 251 254 254 254 255 257 258 259 257 259 261 262 264
262 258 254 252 250 250 250 248 248 247 249 250 250 251 251 251 252 252 252 253 252 252 252 252 251 252 251 252 252 251 250 251 254 255 256 257 258 258 257 258 260 262 264
266 263 257 252 252 253 251 248 247 248 249 250 252 252 251 252 252 253 253 253 252 251 251 252 251 252 252 252 252 251 250 251 254 255 255 256 256 256 258 260 260 261 264
270 267 261 254 253 253 252 251 249 250 250 251 252 252 251 253 253 253 253 252 252 250 250 251 251 252 252 253 253 252 252 251 252 253 254 256 256 255 258 259 260 262 264
271 272 267 259 257 256 254 252 252 253 252 252 252 254 254 253 253 253 253 252 250 249 250 250 251 251 252 253 253 253 252 250 252 253 255 257 257 256 258 260 261 262 262
273 273 269 263 261 258 256 254 254 255 255 255 255 256 257 255 254 253 252 251 251 250 251 251 250 251 251 252 253 254 253 251 252 254 255 255 256 256 258 260 261 262 262
277 274 269 267 262 259 258 256 255 256 256 257 257 258 258 257 256 255 254 254 253 252 253 253 251 251 251 251 252 254 254 253 253 254 254 255 256 256 256 257 259 261 262
282 277 272 269 266 263 261 258 257 257 257 257 258 257 257 257 254 253 253 254 255 256 256 254 253 251 249 249 250 252 255 256 255 253 254 255 256 256 256 257 257 260 261
284 280 277 274 270 267 265 262 259 258 257 257 257 257 256 256 254 254 255 256 256 257 256 256 255 252 251 250 251 252 255 256 253 253 253 254 256 257 257 256 256 258 260
285 285 282 280 278 275 270 267 262 259 258 256 256 257 257 256 256 257 256 257 256 256 256 256 254 253 251 251 252 253 253 253 252 254 255 255 256 257 258 257 256 257 259
288 288 285 284 282 279 275 272 265 260 258 256 256 258 257 256 259 258 257 257 257 256 257 256 255 253 252 252 253 252 251 251 253 255 255 255 255 257 258 257 257 258 259
294 294 291 288 285 281 276 273 268 262 259 257 256 257 257 258 259 258 256 256 257 257 257 256 255 253 252 252 253 251 250 250 253 255 255 255 255 255 257 258 257 256 256
296 295 295 292 287 282 277 272 270 266 261 258 257 257 258 260 261 261 260 260 259 258 256 257 255 253 251 251 252 250 249 251 253 255 255 255 255 254 256 256 254 253 254
295 297 298 296 289 286 280 276 272 270 267 262 259 258 258 260 261 261 261 261 261 259 258 258 256 254 252 250 250 249 250 251 252 253 253 254 254 254 255 254 252 253 255
297 298 299 296 288 284 282 278 274 271 269 266 262 258 257 258 259 260 261 261 262 261 261 259 257 257 256 254 250 249 249 250 251 252 252 253 254 254 253 251 251 252 256
297 299 299 297 291 285 281 281 277 272 268 267 264 259 258 258 258 259 260 260 260 259 260 259 258 257 256 255 253 250 251 252 252 252 250 250 252 251 251 251 251 253 257
297 297 298 295 293 287 282 279 276 273 269 266 264 262 261 261 260 259 259 260 258 257 257 258 258 256 255 255 253 252 253 253 252 252 249 248 251 252 252 252 252 254 257
297 297 295 294 292 288 283 278 274 271 270 269 269 267 265 264 263 261 261 259 257 255 256 257 257 257 256 255 252 252 252 252 252 251 248 250 251 252 253 252 252 254 257
299 296 293 293 291 288 285 281 274 272 271 270 269 269 267 265 264 263 262 263 261 257 257 257 257 256 254 254 251 250 252 252 251 250 250 251 250 250 251 252 253 255 256
297 294 292 293 292 287 284 283 279 275 273 273 271 270 269 267 264 264 264 264 263 261 260 258 257 255 254 254 252 251 250 251 251 248 248 249 251 252 253 253 253 255 256
294 291 289 289 289 287 285 285 282 277 273 273 272 271 269 269 266 265 267 266 263 262 260 259 256 256 256 255 254 253 250 247 247 246 246 250 250 250 252 253 252 253 253
291 289 290 288 286 283 283 283 282 278 277 277 276 274 272 269 267 266 268 267 264 261 259 260 259 258 257 256 255 254 252 250 248 248 250 251 250 249 250 251 250 250 247
289 288 287 287 284 282 283 283 281 279 280 280 279 277 274 271 270 270 270 266 264 264 263 262 259 257 256 255 254 254 254 254 251 249 248 248 249 249 250 250 247 245 243